COSMOS 1711 (GLONASS)

Satellite information

Favourite Embed

Satellite Type and Status

PAYLOADIN ORBIT

Key statistics

Satellite COSMOS 1711 (GLONASS) at a glance.

Uptime

14442

Days in orbit

Revolutions

≈ 2.1

Per day

Orbit

MEO

Medium Earth Orbit

Inclination

66.2

Latest

Satellite identification and parameters

Extended collection of information and parameters for COSMOS 1711 (GLONASS).

Object identification

Identified? True

Debris? False

Object name: COSMOS 1711 (GLONASS)

International designator: 1985-118B

Object number (NORAD): 16397

Object ID (CCSDS): 16397

Country: COMMONWEALTH OF INDEPENDENT STATES (CIS)

Current information (Y/N): Y

RCS size: MEDIUM

Orbital parameters

Period: 675.734 minutes

Inclination: 66.218 deg

SMA: 25508.049 km

Apoapsis: 19153.123 km

Periapsis: 19106.704 km

RAAN: 335.8142 deg

Eccentricy: 0.0009099

Argument of periapsis: 189.9013 deg

Mean anomaly: 176.7237 deg

Mean motion: 2.13101698 rev/day

Mean motion (dot): -0.00000067 rev/day2

B* drag term: 0.0 1/REarth

Two-line elements (TLE)

Creation date: July 8, 2025, 5:26 p.m.

Reference frame: TEME

Reference center: EARTH

Epoch: July 8, 2025, 10:20 a.m. UTC

TLE line 0: 0 COSMOS 1711 (GLONASS)

TLE line 1: 1 16397U 85118B 25189.43090087 -.00000067 00000-0 00000-0 0 9999

TLE line 2: 2 16397 66.2180 335.8142 0009099 189.9013 176.7237 2.13101698307436

Live tracking on map

Real-time ground track for satellite COSMOS 1711 (GLONASS).

In-orbit conjunctions

There are no conjunctions computed for COSMOS 1711 (GLONASS), at the moment. Check back to stay up to date, as we update our databases every day.

Go to all conjunctions

Associated space launch

GLONASS navigation satellites

COSMOS 1711 (GLONASS) was lifted into orbit during the mission ‘Proton | Uragan 12 & 13’, on board a Proton space rocket.

The launch took place on Dec. 24, 1985, 9:43 p.m. from 200/39 (200L).

For more information about the launch, click the button.

Launch to space Proton | Uragan 12 & 13
Proton | Uragan 12 & 13

Agency: N/A

Status: Launch Successful

Launch date: Dec. 24, 1985, 9:43 p.m. UTC

Rocket: Proton

Launch pad: 200/39 (200L)

Location: Baikonur Cosmodrome, Republic of Kazakhstan

...

Latest news about this satellite

There are no fresh news available about this satellite. Check back as we update our databases every day.


Newsletter sign-up

Weekly statistics, charts and insights to help you stay on top of the space industry.